"Pseudo-MPEC" for Mar3103

Created 2023 Jun 19 14:22:05 UT using Find_Orb

Click here for an explanation of pseudo-MPECs

 
 Astrometry: 
     Mar3103*KC2023 05 24p;;6-3Wh(Cs?^l#`'X7XZ-+Us-ZPI;Gd17qDn:73yOWEf8#$K^eV807
     Mar3103 KC2023 05 24m9=MAstrometryiACj_T'redacted;1RclickPK3A^2hereqdCQ\807
     Mar3103 KC2023 05 24t/-forXN=%g[S1VP!;*]L6explanation3wIT\6KFYBQo:NC@S0U807

Station data:
(807) Cerro Tololo Observatory, La Serena  (S30.169133 W70.805900)  Chile.
   Observers T. Linder, R. Holmes. 0.61-m f/6.5 astrograph + CCD.

Orbital elements:  Mar3103
   Perihelion 2023 Nov 14.20809 +/- 120 TT =  4:59:38 (JD 2460262.70809)
Epoch 2023 May 24.0 TT = JDT 2460088.5   Earth MOID: 0.0033      AutoNEOCP
M 183.38901697 +/- 120              (J2000 ecliptic)
n   1.01379324 +/- 0.648            Peri.  176.05459 +/- 60
a   0.98137830 +/- 0.418            Node   243.67576 +/- 8
e   0.0410091 +/- 0.235             Incl.    0.46837 +/- 45
P   0.97/355.10d           H 28.31  G  0.15   U 12.4  SR
q 0.94113283 +/- 0.646    Q 1.02162377 +/- 20.2
From 3 observations 2023 May 24 (23.5 min); mean residual 0".21
Residuals in arcseconds: 
230524 807  .16+  .13-    230524 807  .34-  .26+    230524 807  .17+  .13-    

Ephemerides (geocentric):
Date (UTC) HH   RA             Dec           delta  r     elong  mag " sig PA
---- --------  ------------   ------------  ------ ------ -----  --- --------
2023 06 19 14  07 54 27.279   -10 12 31.21  490517 1.0138  45.3 22??  62d  14
2023 06 19 15  07 54 37.807   -10 35 55.16  494289 1.0138  45.6 22??  62d  14
2023 06 19 16  07 54 48.192   -10 58 57.61  498062 1.0138  45.9 22??  62d  14
2023 06 19 17  07 54 58.439   -11 21 39.04  501836 1.0138  46.2 22??  62d  14
2023 06 19 18  07 55 08.551   -11 43 59.93  505610 1.0138  46.5 22??  62d  14
2023 06 19 19  07 55 18.532   -12 06 00.73  509385 1.0138  46.8 22??  62d  14
2023 06 19 20  07 55 28.385   -12 27 41.88  513160 1.0138  47.0 22??  62d  14
2023 06 19 21  07 55 38.113   -12 49 03.82  516936 1.0138  47.3 22??  62d  14
2023 06 19 22  07 55 47.719   -13 10 06.97  520712 1.0138  47.6 22??  62d  14
2023 06 19 23  07 55 57.206   -13 30 51.73  524487 1.0138  47.8 22??  61d  14
2023 06 20 00  07 56 06.578   -13 51 18.52  528262 1.0138  48.1 22??  61d  14
2023 06 20 01  07 56 15.836   -14 11 27.70  532037 1.0138  48.3 22??  61d  14
2023 06 20 02  07 56 24.984   -14 31 19.67  535811 1.0138  48.6 22??  61d  14
2023 06 20 03  07 56 34.023   -14 50 54.79  539585 1.0138  48.9 22??  61d  14
2023 06 20 04  07 56 42.957   -15 10 13.41  543358 1.0138  49.1 22??  61d  14
2023 06 20 05  07 56 51.788   -15 29 15.88  547129 1.0138  49.3 22??  61d  14
2023 06 20 06  07 57 00.517   -15 48 02.55  550900 1.0138  49.6 22??  61d  14
2023 06 20 07  07 57 09.148   -16 06 33.73  554670 1.0138  49.8 21??  61d  15
2023 06 20 08  07 57 17.682   -16 24 49.76  558438 1.0138  50.1 21??  61d  15
2023 06 20 09  07 57 26.122   -16 42 50.94  562205 1.0138  50.3 21??  61d  15
2023 06 20 10  07 57 34.469   -17 00 37.59  565971 1.0138  50.5 21??  61d  15
2023 06 20 11  07 57 42.725   -17 18 09.98  569735 1.0138  50.7 21??  60d  15
2023 06 20 12  07 57 50.892   -17 35 28.42  573498 1.0138  51.0 21??  60d  15
2023 06 20 13  07 57 58.973   -17 52 33.18  577258 1.0138  51.2 21??  60d  15
2023 06 20 14  07 58 06.967   -18 09 24.54  581017 1.0138  51.4 21??  60d  15
2023 06 20 15  07 58 14.878   -18 26 02.77  584775 1.0138  51.6 21??  60d  15
2023 06 20 16  07 58 22.707   -18 42 28.12  588530 1.0138  51.8 21??  60d  15
2023 06 20 17  07 58 30.456   -18 58 40.84  592283 1.0138  52.0 21??  60d  15
2023 06 20 18  07 58 38.125   -19 14 41.19  596034 1.0138  52.3 21??  60d  15
2023 06 20 19  07 58 45.717   -19 30 29.41  599783 1.0138  52.5 21??  60d  15
2023 06 20 20  07 58 53.232   -19 46 05.73  603530 1.0138  52.7 21??  60d  15
2023 06 20 21  07 59 00.673   -20 01 30.38  607275 1.0138  52.9 21??  60d  15
2023 06 20 22  07 59 08.040   -20 16 43.57  611017 1.0138  53.1 21??  59d  15
2023 06 20 23  07 59 15.336   -20 31 45.54  614757 1.0138  53.3 21??  59d  15
2023 06 21 00  07 59 22.560   -20 46 36.49  618495 1.0138  53.5 21??  59d  15
2023 06 21 01  07 59 29.715   -21 01 16.62  622230 1.0138  53.6 21??  59d  15
2023 06 21 02  07 59 36.801   -21 15 46.15  625962 1.0138  53.8 21??  59d  15
2023 06 21 03  07 59 43.820   -21 30 05.26  629692 1.0138  54.0 21??  59d  15
2023 06 21 04  07 59 50.773   -21 44 14.15  633420 1.0138  54.2 21??  59d  15
2023 06 21 05  07 59 57.661   -21 58 13.01  637145 1.0137  54.4 21??  59d  15
2023 06 21 06  08 00 04.484   -22 12 02.02  640867 1.0137  54.6 21??  59d  15
2023 06 21 07  08 00 11.245   -22 25 41.36  644586 1.0137  54.7 21??  59d  15
2023 06 21 08  08 00 17.943   -22 39 11.19  648303 1.0137  54.9 21??  59d  15
2023 06 21 09  08 00 24.581   -22 52 31.70  652017 1.0137  55.1 21??  58d  15
2023 06 21 10  08 00 31.158   -23 05 43.05  655728 1.0137  55.3 21??  58d  15
2023 06 21 11  08 00 37.676   -23 18 45.40  659436 1.0137  55.4 21??  58d  15
2023 06 21 12  08 00 44.136   -23 31 38.91  663142 1.0137  55.6 21??  58d  15
2023 06 21 13  08 00 50.539   -23 44 23.74  666844 1.0137  55.8 21??  58d  15